TimeCST,TemperatureF,Dew PointF,Humidity,Sea Level PressureIn,VisibilityMPH,Wind Direction,Wind SpeedMPH,Gust SpeedMPH,PrecipitationIn,Events,Conditions,WindDirDegrees,DateUTC
12:54 AM,6.1,-2.9,67,29.92,10.0,WSW,11.5,-,N/A,,Clear,240,2011-01-01 06:54:00
1:54 AM,10.0,-0.9,61,29.92,10.0,West,17.3,-,N/A,,Partly Cloudy,260,2011-01-01 07:54:00
2:54 AM,10.9,1.0,64,29.93,10.0,West,17.3,25.3,N/A,,Clear,270,2011-01-01 08:54:00
3:54 AM,10.9,1.9,67,29.93,10.0,West,13.8,-,N/A,,Clear,270,2011-01-01 09:54:00
4:54 AM,12.0,-0.0,59,29.94,10.0,WNW,21.9,28.8,N/A,,Clear,300,2011-01-01 10:54:00
5:54 AM,12.0,1.0,61,29.99,10.0,WNW,19.6,26.5,N/A,,Clear,300,2011-01-01 11:54:00
6:54 AM,10.9,1.0,64,30.04,10.0,WNW,13.8,-,N/A,,Partly Cloudy,290,2011-01-01 12:54:00
7:54 AM,10.4,-0.4,62,30.00,10.0,WNW,11.5,21.9,N/A,,Clear,290,2011-01-01 13:54:00
8:54 AM,12.0,1.0,61,30.10,10.0,WNW,11.5,-,N/A,,Clear,290,2011-01-01 14:54:00
9:54 AM,14.0,-0.0,54,30.14,10.0,WNW,21.9,28.8,N/A,,Partly Cloudy,300,2011-01-01 15:54:00
10:54 AM,15.1,1.0,54,30.19,10.0,NW,18.4,-,N/A,,Clear,310,2011-01-01 16:54:00
11:54 AM,17.1,1.0,50,30.19,10.0,NW,19.6,28.8,N/A,,Clear,310,2011-01-01 17:54:00
12:54 PM,17.1,1.9,52,30.19,10.0,NW,18.4,27.6,N/A,,Clear,310,2011-01-01 18:54:00
1:54 PM,19.4,1.4,46,30.11,10.0,NW,19.6,27.6,N/A,,Clear,320,2011-01-01 19:54:00
2:54 PM,19.0,1.0,46,30.21,10.0,WNW,16.1,24.2,N/A,,Clear,300,2011-01-01 20:54:00
3:54 PM,19.0,-0.0,43,30.23,10.0,NW,11.5,-,N/A,,Clear,320,2011-01-01 21:54:00
4:54 PM,18.0,1.0,48,30.26,10.0,West,8.1,-,N/A,,Clear,280,2011-01-01 22:54:00
5:54 PM,15.1,3.0,59,30.27,10.0,West,3.5,-,N/A,,Clear,260,2011-01-01 23:54:00
6:54 PM,14.0,3.0,62,30.28,10.0,WSW,4.6,-,N/A,,Clear,250,2011-01-02 00:54:00
7:54 PM,12.9,3.0,65,30.28,10.0,WSW,5.8,-,N/A,,Clear,250,2011-01-02 01:54:00
8:54 PM,12.0,3.0,67,30.28,10.0,WSW,4.6,-,N/A,,Clear,240,2011-01-02 02:54:00
9:54 PM,10.9,3.0,70,30.27,10.0,WSW,4.6,-,N/A,,Clear,250,2011-01-02 03:54:00
10:54 PM,9.0,1.9,73,30.27,10.0,West,3.5,-,N/A,,Clear,260,2011-01-02 04:54:00
11:54 PM,8.1,-0.0,70,30.27,10.0,Calm,Calm,-,N/A,,Clear,0,2011-01-02 05:54:00